>
MacauBo photo banner-macaubo-212x265_zpssyxmmk2l.gif

Jackpot

Texas Poker Multi Jackpot System

Kini Telah hadir Jackpot SUPER ROYAL FLUSH

Kini Telah hadir Jackpot 2000 (khusus table VIP keatas).

Ikutilah global jackpot yang tersedia di system kami, dengan system jackpot terbaru dan pertama di indonesia, anda dapat membeli jackpot dengan harga 100 rupiah saja dan menangkan hadiahnya hingga puluhan juta rupiah.

Jackpot bukanlah suatu keharusan untuk dibeli, namun kami memberikan suatu fitur tambahan untuk member tercinta dari www.pokerbo.biz.

Terdapat tiga pilihan harga jackpot yang bisa anda beli yaitu :100,500,1000 dan 2000(khusus table VIP Keatas) rupiah.

Hadiah dari Multi jackpot system www.pokerbo.biz

  1. full house x 10 harga jackpot yang anda beli.
      (contoh:anda membeli 1000 maka:1000 X10 = 10.000)
  2. four of kind x 250 harga jackpot yang anda beli
      (contoh:anda membeli 1000 maka:1000 X250 = 250.000)
  3. Straight flush x 1200
      (contoh:anda membeli 1000 maka:1000 X1200 = 1.200.000)
  4. Royal flush x 10000 harga jackpot yang anda beli
      (contoh:anda membeli 1000 maka:1000 X10000 = 10.000.000)
  5. SUPER ROYAL FLUSH x 30000 harga jackpot yang anda beli
      (contoh:anda membeli 1000 maka:1000 X30000 = 30.000.000)

Kondisi kartu

  1. full house adalah kondisi kartu dimana kartu anda dan kartu tengah dengan total 7 kartu bisa mendapatkan nilai 5 kartu dengan kombinasi 1 tris(three of kind) dan 1 pair, contoh 3 kartu 10 dan 2 kartu 5
  2. Four of kind adalah kondisi kartu dimana kartu anda dan kartu tengah dengan total 7 kartu bisa mendapatkan nilai 5 kartu dengan kombinasi 4 kartu yang sama jumlah dan 1 kartu apapun juga contoh anda mendapatkan 4 buah kartu angka 3 dan 1 kartu apapun.
  3. Staright flush adalah kondisi kartu dimana kartu anda dan kartu tengah dengan total 7 kartu bisa mendapatkan nilai 5 kartu dengan kombinasi seri / staright dengan kembang yang sama contoh : urutan kartu dari angka 5, 6, 7, 8 , 9 10 dengan kembang yg sama misalnya as hati
  4. Royal flush adalah kondisi kartu dimana kartu anda dan kartu tengah dengan total 7 kartu bisa mendapatkan nilai 5 kartu dengan kombinasi seri / staright dengan kembang yang sama tetapi kartu tersebut haruslah dimulai dari 10. contoh 10, Queen, Jack, King dan aces dengan kembang yang sama
  5. Super Royal flush adalah kondisi kartu dimana Kedua kartu anda digabung dengan 3 kartu pertama meja haruslah royal flush. contoh kartu anda 10,Queen kembang sama dan 3 kartu pertama meja adalah Jack, King dan aces dengan kembang yang sama

Demikian adalah penjelasan dari Multi Jackpot www.pokerbo.biz terima kasih dan selamat bermain salam hoki dari kami

Texas Poker Jackpot Winner

TOP SUPER ROYAL FLUSH
No.TanggalNamaPriceWin
124/01 13:52KINGJUICEMSuper Royal flush30,000,000
224/01 13:35WARRIOR_GSuper Royal flush3,000,000
324/01 12:22KAISAR234Super Royal flush15,000,000
424/01 07:55THEWALKERSuper Royal flush3,000,000
524/01 05:25WEDF2PFJSuper Royal flush3,000,000
TOP ROYAL FLUSH
No.TanggalNamaPriceWin
124/01 13:54DHUMM94Royal flush5,000,000
224/01 13:48CEKRoyal flush1,000,000
324/01 13:46RETAK212Royal flush5,000,000
424/01 13:06SUSI2711Royal flush5,000,000
524/01 12:19NASRIL86Royal flush1,000,000
TOP STRAIGHT FLUSH
No.TanggalNamaPriceWin
124/01 14:03M1DHANStraight Flush120,000
224/01 14:01DARKIM88Straight Flush120,000
324/01 13:59JAMES168Straight Flush120,000
424/01 13:58ABADIABEStraight Flush1,200,000
524/01 13:53SIKASEP115Straight Flush1,200,000
LATEST JACKPOT
No.TanggalNamaPriceWin
124/01 14:03ATOM151Full House10,000
224/01 14:03MOEBIUSFull House1,000
324/01 14:03OPAN9Full House5,000
424/01 14:03GOPEK8Full House1,000
524/01 14:03DN4DLAMARANFull House5,000
624/01 14:03CHINDY05Full House1,000
724/01 14:03ETIE88Full House1,000
824/01 14:03M1DHANStraight Flush120,000
924/01 14:03AE6255PVFull House5,000
1024/01 14:03JAMES168Full House1,000
1124/01 14:03MV200179Full House1,000
1224/01 14:03QQQW4ZJPDRFull House5,000
1324/01 14:03DUITGAIB_9Full House5,000
1424/01 14:03ROLLEX03Four Of A Kind250,000
1524/01 14:03INIUKAFour Of A Kind500,000
1624/01 14:03HENHYUNDRAFull House1,000
1724/01 14:03EAST87Full House5,000
1824/01 14:03ESTOTO9Full House1,000
1924/01 14:03DATANGUANGFull House5,000
2024/01 14:03PASTIKEFull House5,000
2124/01 14:03PANIK88Full House5,000
2224/01 14:03ADAMS01Full House1,000
2324/01 14:03FERDYWILLFull House1,000
2424/01 14:03APK23Full House5,000
2524/01 14:03T4DBEDI87Full House1,000
2624/01 14:03ED615542Four Of A Kind125,000
2724/01 14:03QHY001Full House5,000
2824/01 14:03CEMPLUKFull House1,000
2924/01 14:03PROFOSFull House1,000
3024/01 14:02CARULASSFull House5,000
3124/01 14:02ONGIS1234Full House1,000
3224/01 14:02IZ175473Full House1,000
3324/01 14:02JAGAT92Full House1,000
3424/01 14:02PARTO99QQFull House5,000
3524/01 14:02DARKIM88Full House1,000
3624/01 14:02ANGGADA1Full House5,000
3724/01 14:02MARCO193Full House5,000
3824/01 14:02ZHAMBAQYFull House10,000
3924/01 14:02CORO27Full House1,000
4024/01 14:02BR4YY688Full House1,000
4124/01 14:02Y33M33NFull House5,000
4224/01 14:02BATTERY1Full House10,000
4324/01 14:02ROYKAN12Full House20,000
4424/01 14:02NOV01Full House10,000
4524/01 14:02EYOTA01Full House10,000
4624/01 14:02LAPECO88Full House10,000
4724/01 14:02OHANG_AAFour Of A Kind25,000
4824/01 14:02EGIDAYFull House20,000
4924/01 14:02KIMBAL86Full House1,000
5024/01 14:02EDWARD666Full House5,000

Domino Multi Jackpot System

Ikutilah global jackpot yang tersedia di system kami, dengan system jackpot terbaru dan pertama di indonesia, anda dapat membeli jackpot dengan harga 100 rupiah saja dan menangkan hadiahnya hingga puluhan juta rupiah.

Jackpot bukanlah suatu keharusan untuk dibeli, namun kami memberikan suatu fitur tambahan untuk member tercinta dari www.pokerbo.biz.

Terdapat tiga pilihan harga jackpot yang bisa anda beli yaitu :100,500 dan 1000 rupiah.

Hadiah dari Multi jackpot system www.pokerbo.biz

  1. Murni Kecil x 50 harga jackpot yang anda beli.
      (contoh:anda membeli 1000 maka:1000 X 50 = 50.000)
  2. Murni Besar x 50 harga jackpot yang anda beli
      (contoh:anda membeli 1000 maka:1000 X 50 = 50.000)
  3. BALAK x 100 harga jackpot yang anda beli
      (contoh:anda membeli 1000 maka:1000 X 100 = 100.000)
  4. ENAM DEWA x 6666 harga jackpot yang anda beli
      (contoh:anda membeli 1000 maka:1000 X 6666 = 6.666.000)

Demikian adalah penjelasan dari Multi Jackpot www.pokerbo.biz terima kasih dan selamat bermain salam hoki dari kami

Domino Jackpot Winner

TOP ENAM DEWA
No.TanggalNamaPriceWin
124/01 05:28SULTN99murni enam6,666,000
224/01 04:08KITTY995murni enam666,600
324/01 00:16TEMPEKTUOmurni enam3,333,000
423/01 23:59TM7ZINATMJmurni enam6,666,000
523/01 23:50CROSSBACKmurni enam6,666,000
TOP BALAK
No.TanggalNamaPriceWin
124/01 14:03AKBAR114balak100,000
224/01 14:03KAKEK99balak100,000
324/01 14:00BG70ULbalak10,000
424/01 13:53SYAMUEL197balak100,000
524/01 13:52WINFORME99balak10,000
LATEST JACKPOT
No.TanggalNamaPriceWin
124/01 14:03AKBAR114balak100,000
224/01 14:03KAKEK99balak100,000
324/01 14:03DOKODEOmurni kecil50,000
424/01 14:02KANU9999murni besar25,000
524/01 14:01JULISUSANmurni kecil50,000
624/01 14:00BG70ULbalak10,000
724/01 14:00GENGBENG99murni kecil25,000
824/01 14:00JONNY1708murni besar5,000
924/01 13:59HLOVR2YQKAmurni kecil25,000
1024/01 13:58PUPUU77murni kecil5,000
1124/01 13:57SUKIT21murni kecil5,000
1224/01 13:56SASKIYA01murni kecil50,000
1324/01 13:56NCEX201murni besar25,000
1424/01 13:56POSAN99murni kecil25,000
1524/01 13:56QIUMULUmurni kecil50,000
1624/01 13:56KALACATmurni kecil5,000
1724/01 13:55X7FK9E217Imurni besar25,000
1824/01 13:53JEGER241murni kecil50,000
1924/01 13:53CHILERRmurni kecil50,000
2024/01 13:53DA6F17EBmurni kecil5,000
2124/01 13:53SYAMUEL197balak100,000
2224/01 13:52WINFORME99balak10,000
2324/01 13:51APACHE13murni kecil50,000
2424/01 13:51SYAMUEL197murni besar50,000
2524/01 13:50MENAG12murni besar50,000
2624/01 13:50WIDA007murni besar5,000
2724/01 13:49WEN378APJYmurni besar5,000
2824/01 13:48BETOKA89balak100,000
2924/01 13:47CHILERRmurni kecil50,000
3024/01 13:47CENDANA04murni kecil50,000
3124/01 13:46NCEX201murni besar50,000
3224/01 13:46SABAR288murni kecil50,000
3324/01 13:46VHY86murni kecil50,000
3424/01 13:45JOKOSU21balak100,000
3524/01 13:45UTOBAPAKbalak10,000
3624/01 13:45QXYFE1XPHSmurni kecil25,000
3724/01 13:44SANAWINGmurni besar50,000
3824/01 13:43ALE378murni kecil25,000
3924/01 13:42COMPENY8murni besar25,000
4024/01 13:40NGELAGAImurni kecil5,000
4124/01 13:40BRAND23murni kecil50,000
4224/01 13:39DIKAVImurni besar50,000
4324/01 13:39LUGUA09murni besar50,000
4424/01 13:39AJAJmurni besar50,000
4524/01 13:39ZAFRAN69murni besar5,000
4624/01 13:38COMPENY8murni kecil25,000
4724/01 13:37WEN378APJYmurni kecil5,000
4824/01 13:37DAXUN66murni kecil25,000
4924/01 13:36FAD212murni besar25,000
5024/01 13:36POSAN99murni besar50,000

Ceme Multi Jackpot System

Jackpot dilihat dari gabungan kartu pemain dengan kartu bandar. Bandar harus membeli jackpot sebanyak jumlah player yang sedang duduk. Sebagai contoh bila terdapat 3 pemain duduk bermain, dan bandar memutuskan untuk membeli jackpot Rp 1.000, maka pada periode tersebut bandar akan membeli jackpot sebanyak 3xRp1.000 = Rp3.000.

Jackpot bukanlah suatu keharusan untuk dibeli, namun kami memberikan suatu fitur tambahan untuk member tercinta dari www.pokerbo.biz.

Terdapat tiga pilihan harga jackpot yang bisa anda beli yaitu :100,500 dan 1000 rupiah.

Hadiah dari Multi jackpot system www.pokerbo.biz

  1. Murni Kecil x 50 harga jackpot yang anda beli.
      (contoh:anda membeli 1000 maka:1000 X 50 = 50.000)
  2. Murni Besar x 50 harga jackpot yang anda beli
      (contoh:anda membeli 1000 maka:1000 X 50 = 50.000)
  3. BALAK x 200 harga jackpot yang anda beli
      (contoh:anda membeli 1000 maka:1000 X 200 = 200.000)
  4. ENAM DEWA x 6666 harga jackpot yang anda beli
      (contoh:anda membeli 1000 maka:1000 X 6666 = 6.666.000)

Demikian adalah penjelasan dari Multi Jackpot www.pokerbo.biz terima kasih dan selamat bermain salam hoki dari kami

Ceme Jackpot Winner

TOP ENAM DEWA
No.TanggalNamaPriceWin
124/01 13:51NAGAUTARAmurni enam6,666,000
224/01 13:43UNANK6murni enam6,666,000
324/01 13:11SMS67murni enam666,600
424/01 12:18SONGJI01murni enam3,333,000
524/01 12:15DDANNmurni enam3,333,000
TOP BALAK
No.TanggalNamaPriceWin
124/01 14:03GOANG35balak200,000
224/01 14:03AMBONBONYbalak20,000
324/01 14:03F58F85BCbalak200,000
424/01 14:02T4L4G0balak100,000
524/01 14:01YUS24balak200,000
LATEST JACKPOT
No.TanggalNamaPriceWin
124/01 14:03JURIGERmurni besar50,000
224/01 14:03NIGATEmurni besar25,000
324/01 14:03LLBZLLmurni besar50,000
424/01 14:03DAYAT338murni kecil50,000
524/01 14:03VPLDLMCCC0murni kecil5,000
624/01 14:03GOANG35balak200,000
724/01 14:03AMBONBONYbalak20,000
824/01 14:03LETE11murni kecil50,000
924/01 14:03F58F85BCbalak200,000
1024/01 14:03GRAV8899murni kecil50,000
1124/01 14:03FA3B615Cmurni besar5,000
1224/01 14:03QCLIKSmurni besar50,000
1324/01 14:03MX7UY4OQA9murni kecil50,000
1424/01 14:03RUD1RUD1murni kecil5,000
1524/01 14:03KIKI1984murni kecil50,000
1624/01 14:03OKLAY84murni kecil50,000
1724/01 14:03MARTIN580murni besar50,000
1824/01 14:03EENX11murni besar50,000
1924/01 14:02T4L4G0balak100,000
2024/01 14:02GRAV8899murni kecil50,000
2124/01 14:02JAGO2000murni kecil25,000
2224/01 14:02WIN885murni kecil25,000
2324/01 14:02PLWBYIIKFNmurni kecil50,000
2424/01 14:02TEGOEH99murni kecil50,000
2524/01 14:01A095444Emurni kecil50,000
2624/01 14:01YUS24balak200,000
2724/01 14:01PAGANmurni kecil50,000
2824/01 14:01NUR2345balak20,000
2924/01 14:01GRAV8899murni kecil50,000
3024/01 14:01C7FBC676murni besar5,000
3124/01 14:01KIKI1984murni besar50,000
3224/01 14:01ADAY19murni besar25,000
3324/01 14:01LLBZLLmurni besar50,000
3424/01 14:01DOLARAINGbalak200,000
3524/01 14:00RIVLI8U0U1murni besar5,000
3624/01 14:00QCLIKSmurni kecil50,000
3724/01 14:00BRAVO09murni kecil50,000
3824/01 14:00ASINPEDEZmurni besar50,000
3924/01 14:00HOKMAN99murni besar50,000
4024/01 14:00NUNG888murni besar50,000
4124/01 14:00S0R9401murni kecil25,000
4224/01 14:00ASDE_murni kecil25,000
4324/01 14:00LEOJOKO31murni besar5,000
4424/01 14:00LEOJOKO31murni besar5,000
4524/01 14:00NORAKURObalak20,000
4624/01 14:00RAFAHOKIbalak100,000
4724/01 14:00BANJUL1murni kecil50,000
4824/01 13:59F6FEA66Cmurni kecil25,000
4924/01 13:59DAYAT338murni besar50,000
5024/01 13:59RAFAHOKIbalak100,000